User: anonymous   Login
Location: Oronoko Observatory
(41.9167°N, 86.3833°W)
Time: 02:34:09
(UTC-04:00)
Language:

PAYLOAD A - Orbit

View from above orbital plane
View from above orbital plane
View from above satellite
View from above satellite

Ground track
Ground track

The orbit data is extracted from the following two-line orbital elements,

1 27840U 03031A   15110.53733378  .00000152  00000-0  60500-4 0  9998
2 27840 098.2113 131.4635 0097836 337.2168 179.3785 14.38796173619907
Epoch (UTC): 20 April 2015 12:53:45
Eccentricity: 0.0097836
inclination: 98.2113°
perigee height: 692 km
apogee height: 832 km
right ascension of ascending node: 131.4635°
argument of perigee: 337.2168°
revolutions per day: 14.38796173
mean anomaly at epoch: 179.3785°
orbit number at epoch: 61990

The dashed part of the orbit path shows where the satellite is in the earth's shadow,  

DLR